Overview Statistics Trail Chart Weather Telemetry Raw packets
 

This is the latest recevied weather packets stored in our database for station/object IU3OVK-13. If no packets are shown the sender has not sent any weather packets the latest 10 day(s).

<< 8 9 10 11 12 13 14 >>
Time Temp. Humidity Pressure Rain* Wind** Luminosity Snow
1788447955 30° C 99% 1009.2 hPa - - - -
1788447335 30° C 99% 1010.4 hPa - - - -
1788446715 30° C 99% 1009 hPa - - - -
1788446095 30.56° C 99% 1009.4 hPa - - - -
1788445475 30.56° C 99% 1009.9 hPa - - - -
1788444888 30° C 99% 1010.5 hPa - - - -
1788444855 30° C 99% 1010.5 hPa - - - -
1788444234 30.56° C 99% 1011 hPa - - - -
1788443614 31.67° C 99% 1008.8 hPa - - - -
1788442994 30.56° C 99% 1010 hPa - - - -
1788442375 30.56° C 99% 1010.2 hPa - - - -
1788441754 30° C 99% 1011.4 hPa - - - -
1788441133 30.56° C 99% 1010.7 hPa - - - -
1788440513 30.56° C 99% 1011.7 hPa - - - -
1788439893 31.67° C 99% 1009.9 hPa - - - -
1788439273 30.56° C 99% 1011.6 hPa - - - -
1788438653 32.22° C 99% 1010.2 hPa - - - -
1788438032 31.11° C 99% 1010.9 hPa - - - -
1788437412 32.22° C 97% 1010.1 hPa - - - -
1788436793 31.67° C 96% 1011 hPa - - - -
1788435553 33.89° C 80% 1015.3 hPa - - - -
1788434311 35° C 75% 1017.5 hPa - - - -
1788433689 44.44° C 61% 973.9 hPa - - - -
1788433069 40.56° C 64% 989 hPa - - - -
1788432449 46.11° C 59% 962.5 hPa - - - -

* Rain since midnight (hover to see other rain measurements)
** Current wind speed in m/s (hover to see current wind gust speed)